This is the latest recevied weather packets stored in our database for station/object KC1TEM-13. If no packets are shown the sender has not sent any weather packets the latest 10 day(s).
| Time | Temp. | Humidity | Pressure | Rain* | Wind** | Luminosity | Snow |
|---|---|---|---|---|---|---|---|
| 1778002898 | 27.78° C | 33% | 1006.9 hPa | 0 mm | - | 787 W/m² | - |
| 1778002595 | 27.78° C | 33% | 1007 hPa | 0 mm | - | 818 W/m² | - |
| 1778002292 | 27.78° C | 33% | 1007 hPa | 0 mm | - | 811 W/m² | - |
| 1778001990 | 27.78° C | 33% | 1007.1 hPa | 0 mm | - | 846 W/m² | - |
| 1778001686 | 27.78° C | 34% | 1007.1 hPa | 0 mm | - | 841 W/m² | - |
| 1778001381 | 27.22° C | 34% | 1007.4 hPa | 0 mm | - | 846 W/m² | - |
| 1778001078 | 27.22° C | 35% | 1007.4 hPa | 0 mm | - | 872 W/m² | - |
| 1778000775 | 27.22° C | 34% | 1007.7 hPa | 0 mm | - | 844 W/m² | - |
| 1778000471 | 27.78° C | 34% | 1007.5 hPa | 0 mm | - | 849 W/m² | - |
| 1778000166 | 28.33° C | 34% | 1007.5 hPa | 0 mm | - | 825 W/m² | - |
| 1777999862 | 27.22° C | 35% | 1007.8 hPa | 0 mm | - | 863 W/m² | - |
| 1777999558 | 27.22° C | 37% | 1007.8 hPa | 0 mm | - | 867 W/m² | - |
| 1777999256 | 26.11° C | 37% | 1007.9 hPa | 0 mm | - | 860 W/m² | - |
| 1777998955 | 26.11° C | 37% | 1008.2 hPa | 0 mm | - | 858 W/m² | - |
| 1777998651 | 26.11° C | 39% | 1008 hPa | 0 mm | - | 861 W/m² | - |
| 1777998349 | 25.56° C | 38% | 1008.2 hPa | 0 mm | - | 847 W/m² | - |
| 1777998047 | 25.56° C | 39% | 1008.3 hPa | 0 mm | - | 836 W/m² | - |
| 1777997744 | 25.56° C | 40% | 1008.6 hPa | 0 mm | - | 831 W/m² | - |
| 1777997441 | 25.56° C | 39% | 1008.8 hPa | 0 mm | - | 843 W/m² | - |
| 1777997139 | 25.56° C | 39% | 1008.8 hPa | 0 mm | - | 839 W/m² | - |
| 1777996836 | 25° C | 41% | 1008.9 hPa | 0 mm | - | 847 W/m² | - |
| 1777996532 | 25.56° C | 39% | 1008.9 hPa | 0 mm | - | 851 W/m² | - |
| 1777996228 | 25° C | 40% | 1009 hPa | 0 mm | - | 846 W/m² | - |
| 1777995925 | 25° C | 39% | 1009.1 hPa | 0 mm | - | 834 W/m² | - |
| 1777995621 | 25° C | 40% | 1009 hPa | 0 mm | - | 846 W/m² | - |
* Rain latest hour (hover to see other rain measurements)
** Current wind speed in m/s (hover to see current wind gust speed)